Regional Weather Roundup
Issued by NWS

Home | Current Version | Previous Version | Graphics & Text | Print | Product List | Glossary On
Versions: 1 2 3 4 5 6 7 8 9 10 11 12 13 14 15 16 17 18 19 20 21 22 23 24 25 26
000
ASUS45 KTFX 171610
RWRMT
MONTANA REGIONAL WEATHER ROUNDUP
NATIONAL WEATHER SERVICE GREAT FALLS MT
900 AM MST SAT FEB 17 2018

NOTE: "FAIR" INDICATES FEW OR NO CLOUDS BELOW 12000 FEET WITH NO
SIGNIFICANT WEATHER AND/OR OBSTRUCTIONS TO VISIBILITY.

MTZ001>007-043-171700-
WEST OF THE DIVIDE

CITY           SKY/WX    TMP DP  RH WIND       PRES   REMARKS
KALISPELL      LGT SNOW  20  18  92 CALM      29.85F VSB 3/4
MISSOULA       CLOUDY    27  24  89 CALM      29.86F FOG
BUTTE          FAIR      29  17  61 W14G22    29.83F WCI  18
MULLAN PASS    SNOW      22  20  92 VRB7G20   29.70F VSB 1/2 WCI  13
ANACONDA         N/A     30  19  64 MISG      29.82F
DEER LODGE       N/A     27  25  93 CALM      29.84F
EUREKA           N/A     21  18  86 MISG      29.84F
HAMILTON         N/A     34  27  75 MISG      29.85F
RONAN          FOG       27  27 100 SE6       29.86F VSB 1   WCI  20
$$

MTZ008-052>055-171700-
SOUTHWEST MONTANA

CITY           SKY/WX    TMP DP  RH WIND       PRES   REMARKS
BOZEMAN        CLOUDY    25  18  74 SE8       29.88F WCI  16
DILLON         FAIR      24  12  60 SW12      29.87F WCI  13
ENNIS          PTSUNNY   30  16  55 S18       29.94S WCI  18
W YELLOWSTONE  CLOUDY    19  18  93 SW18G25   29.94S FOG     WCI   4
THREE FORKS      N/A     26  20  78 CALM      29.88F
$$

MTZ009-010-012-014-046-048-049-054-171700-
EAST SLOPES AND CENTRAL MONTANA

CITY           SKY/WX    TMP DP  RH WIND       PRES   REMARKS
CUT BANK       CLOUDY    12  10  92 SE9       29.83F WCI   0
GREAT FALLS    CLOUDY    13   9  84 E6        29.87F WCI   4
MALMSTROM AFB  FLURRIES  13  12  98 SE10      29.89F WCI  -1
HELENA         FLURRIES  19  16  88 NW5       29.89F
AUGUSTA        FOG       11  10  97 SE5       29.81F VSB 1/8
BOWMANS CRNR   FAIR      12  11  95 S10       29.80F WCI  -1
FAIRFIELD      FAIR      13  10  89 SE7       29.84F WCI   3
POWER          PTSUNNY   12  10  91 E8        29.85F WCI   0
RAYNESFORD     PTSUNNY   16  10  78 SE16      29.87F WCI   1
ULM            PTSUNNY   10   8  91 S3        29.87F
WHITE SULPHUR    N/A     25  16  68 SW16      29.82F WCI  12
$$

MTZ011-013-016-021-045-047-050-051-171700-
NORTH CENTRAL MONTANA

CITY           SKY/WX    TMP DP  RH WIND       PRES   REMARKS
HAVRE          CLOUDY    15  11  83 CALM      29.98F
LEWISTOWN      PTSUNNY   10   8  92 SE8       29.90F WCI  -2
N BAR RANCH    PTSUNNY   12   7  79 CALM      29.91F
CHINOOK          N/A     12   7  79 CALM      30.01S
GEYSER         PTSUNNY   14  10  86 S7        29.88F WCI   3
STANFORD       CLOUDY    12  10  93 S10       29.87F WCI  -1
WINIFRED       FAIR      12   9  86 S10       29.92S WCI  -1
$$

MTZ017>020-022>027-061-062-171700-
NORTHEAST MONTANA

CITY           SKY/WX    TMP DP  RH WIND       PRES   REMARKS
GLASGOW        CLOUDY     6   2  83 W6        30.01R WCI  -4
GLENDIVE       PTSUNNY   14   6  70 S8        30.02R WCI   3
JORDAN           N/A      6   2  83 CALM      30.00F
MALTA          CLOUDY     3   1  92 CALM      30.02R
SIDNEY         FAIR      12   5  73 W14       30.01S WCI  -3
WOLF POINT     PTSUNNY    7   1  76 W7        30.05R WCI  -5
PLENTYWOOD       N/A      9   3  78 W17       29.94R WCI -10
POPLAR           N/A      3   0  85 SW9       30.05R WCI -11
$$

MTZ028>42-056>058-171700-
SOUTHCENTRAL AND SOUTHEAST MONTANA

CITY           SKY/WX    TMP DP  RH WIND       PRES   REMARKS
BAKER          FAIR      12   9  87 W13       29.99R WCI  -3
BILLINGS       CLOUDY    20  16  84 E7        29.95F WCI  11
LIVINGSTON     CLOUDY    32  21  64 W20       29.84F WCI  20
MILES CITY     CLOUDY    14  11  87 SW8       30.03S WCI   3
BIG TIMBER     CLOUDY    23  16  74 NE6       29.89S WCI  16
FORSYTH          N/A     18  16  93 SW3       30.03F
HARLOWTON      LGT SNOW  15  13  90 E6        29.90S WCI   7
LAUREL           N/A     19  16  86 NE13      29.96F WCI   7
$$

REGIONAL REPORTS...DAKOTAS

CITY           SKY/WX    TMP DP  RH WIND       PRES   REMARKS
WILLISTON      FAIR      11   4  73 W17       29.97R WCI  -6
MINOT          FAIR      16   8  71 W14       29.91R WCI   2
DICKINSON      LGT SNOW  15  11  83 NW20      29.94R FOG     WCI  -2
BEACH          FAIR      10   7  85 W12       30.00S WCI  -4
CROSBY         FAIR      10   5  79 W20       29.93R WCI  -8
TIOGA          FAIR      10  10 100 W13G18    29.92S WCI  -5
WATFORD CITY   FAIR      12   7  79 W10       29.98R WCI  -1
BISMARCK       FAIR      20  14  77 W13G23    29.99R WCI   7
GRAND FORKS    FAIR      18  10  71 NW18G26   29.88R WCI   2
FARGO          FAIR      20  14  77 NW15      29.89R WCI   6
BUFFALO SD       N/A     17  11  77 NW25      29.89R WCI  -1
RAPID CITY     FAIR      30  23  75 N15       29.98R WCI  19
$$

REGIONAL REPORTS...WYOMING/IDAHO/WASHINGTON

CITY           SKY/WX    TMP DP  RH WIND       PRES   REMARKS
SHERIDAN       CLOUDY    23  21  92 SW5       29.96R
BUFFALO WY     PTSUNNY   23  20  88 S15       29.93S WCI  10
CODY           FAIR      23  16  74 S5        29.91F
YELLOWSTONE LA   N/A     17  13  84 CALM      29.95F
IDAHO FALLS    CLOUDY    29  24  82 SW18      30.07F WCI  16
SALMON         CLOUDY    37  19  48 S17       29.93F WCI  27
BOISE          CLOUDY    36  27  69 SE12      30.08F WCI  28
SPOKANE        LGT SNOW  33  33 100 S7        29.80F VSB 3/4 WCI  27
$$

REGIONAL REPORTS...ALBERTA

CITY           SKY/WX    TMP DP  RH WIND       PRES   REMARKS
CALGARY        LGT SNOW   9   3  78 E5        29.89F
EDMONTON       CLEAR      1  -9  60 W10       29.95S WCI -14
FORT MCMURRAY  FLURRIES   5   0  78 NW9       29.92R WCI  -9
HIGH LEVEL     FLURRIES  10   1  67 NW13G22   30.03R WCI  -5
LETHBRIDGE     CLOUDY    14   5  67 E15       29.91F WCI  -1
LLOYDMINSTER   CLOUDY     3  -4  72 W15       29.87S WCI -15
MEDICINE HAT   CLOUDY     3   0  85 CALM      30.00F
MILK RIVER       N/A     14  10  85 E8          N/A  WCI   3
ONEFOUR          N/A      9   5  85 N3          N/A
PEACE RIVER    PTCLDY    -2  -9  71 SW6       30.02R WCI -14
PINCHER CREEK  FLURRIES  10   9  92 E12       29.83F WCI  -4
WATERTON GATE    N/A     10   9  92 N9          N/A  WCI  -2
$$

REGIONAL REPORTS...SASKATCHEWAN

CITY           SKY/WX    TMP DP  RH WIND       PRES   REMARKS
CORONACH         N/A      9   1  72 NW15        N/A  WCI  -8
CYPRESS HILLS    N/A      1  -2  85 NW7         N/A  WCI -11
ESTEVAN        PTSUNNY   12   7  79 W21G32    29.90R WCI  -6
MOOSE JAW        N/A      7   0  72 W17         N/A  WCI -12
PRINCE ALBERT  MOSUNNY    7  -2  66 W9        29.86R WCI  -7
REGINA         MOSUNNY    3  -4  72 W16       29.91R WCI -16
ROCKGLEN         N/A      7   0  72 NW14G23     N/A  WCI -10
SASKATOON      PTSUNNY    3  -4  72 SW9       29.92S WCI -11
SWIFT CURRENT  SUNNY      1  -6  71 W14G20    29.91R WCI -17
VAL MARIE        N/A      1  -6  71 NW8         N/A  WCI -12
$$




USA.gov is the U.S. government's official web portal to all federal, state and local government web resources and services.